owner,sensor,date,latitude,longitude,air_temperature,qcFlag 
COMPS,ioos:station:USF.COMPS:C13:1,2017-08-01T00:05:00Z,26.0630,-83.0730,29.46,1111122 
COMPS,ioos:station:USF.COMPS:C13:1,2017-08-01T00:35:00Z,26.0630,-83.0730,29.4,1111122 
COMPS,ioos:station:USF.COMPS:C13:1,2017-08-01T01:05:00Z,26.0630,-83.0730,27.75,1111122 
COMPS,ioos:station:USF.COMPS:C13:1,2017-08-01T01:35:00Z,26.0630,-83.0730,26.85,1111122 
COMPS,ioos:station:USF.COMPS:C13:1,2017-08-01T02:05:00Z,26.0630,-83.0730,25.42,1111122 
COMPS,ioos:station:USF.COMPS:C13:1,2017-08-01T02:35:00Z,26.0630,-83.0730,26.19,1111122 
COMPS,ioos:station:USF.COMPS:C13:1,2017-08-01T03:05:00Z,26.0630,-83.0730,28.53,1111122 
COMPS,ioos:station:USF.COMPS:C13:1,2017-08-01T03:35:00Z,26.0630,-83.0730,26.78,1111122 
COMPS,ioos:station:USF.COMPS:C13:1,2017-08-01T04:05:00Z,26.0630,-83.0730,27.13,1111122 
COMPS,ioos:station:USF.COMPS:C13:1,2017-08-01T04:35:00Z,26.0630,-83.0730,27.63,1111122 
COMPS,ioos:station:USF.COMPS:C13:1,2017-08-01T05:05:00Z,26.0630,-83.0730,28.03,1111122 
COMPS,ioos:station:USF.COMPS:C13:1,2017-08-01T05:35:00Z,26.0630,-83.0730,28.71,1111122 
COMPS,ioos:station:USF.COMPS:C13:1,2017-08-01T06:05:00Z,26.0630,-83.0730,28.61,1111122 
COMPS,ioos:station:USF.COMPS:C13:1,2017-08-01T06:35:00Z,26.0630,-83.0730,28.78,1111122 
COMPS,ioos:station:USF.COMPS:C13:1,2017-08-01T07:05:00Z,26.0630,-83.0730,28.46,1111122 
COMPS,ioos:station:USF.COMPS:C13:1,2017-08-01T07:35:00Z,26.0630,-83.0730,28.55,1111122 
COMPS,ioos:station:USF.COMPS:C13:1,2017-08-01T08:05:00Z,26.0630,-83.0730,28.61,1111122 
COMPS,ioos:station:USF.COMPS:C13:1,2017-08-01T08:35:00Z,26.0630,-83.0730,28.76,1111122 
COMPS,ioos:station:USF.COMPS:C13:1,2017-08-01T09:05:00Z,26.0630,-83.0730,28.78,1111122 
COMPS,ioos:station:USF.COMPS:C13:1,2017-08-01T09:35:00Z,26.0630,-83.0730,29.02,1111122 
COMPS,ioos:station:USF.COMPS:C13:1,2017-08-01T10:05:00Z,26.0630,-83.0730,28.99,1111122 
COMPS,ioos:station:USF.COMPS:C13:1,2017-08-01T10:35:00Z,26.0630,-83.0730,28.96,1111122 
COMPS,ioos:station:USF.COMPS:C13:1,2017-08-01T11:05:00Z,26.0630,-83.0730,29.06,1111122 
COMPS,ioos:station:USF.COMPS:C13:1,2017-08-01T11:35:00Z,26.0630,-83.0730,29.07,1111122 
COMPS,ioos:station:USF.COMPS:C13:1,2017-08-01T12:05:00Z,26.0630,-83.0730,29.25,1111122 
COMPS,ioos:station:USF.COMPS:C13:1,2017-08-01T12:35:00Z,26.0630,-83.0730,29.35,1111122 
COMPS,ioos:station:USF.COMPS:C13:1,2017-08-01T13:05:00Z,26.0630,-83.0730,29.33,1111122 
COMPS,ioos:station:USF.COMPS:C13:1,2017-08-01T13:35:00Z,26.0630,-83.0730,29.36,1111122 
COMPS,ioos:station:USF.COMPS:C13:1,2017-08-01T14:05:00Z,26.0630,-83.0730,29.36,1111122 
COMPS,ioos:station:USF.COMPS:C13:1,2017-08-01T14:35:00Z,26.0630,-83.0730,29.47,1111122 
COMPS,ioos:station:USF.COMPS:C13:1,2017-08-01T15:05:00Z,26.0630,-83.0730,29.4,1111122 
COMPS,ioos:station:USF.COMPS:C13:1,2017-08-01T15:35:00Z,26.0630,-83.0730,29.4,1111122 
COMPS,ioos:station:USF.COMPS:C13:1,2017-08-01T16:05:00Z,26.0630,-83.0730,29.71,1111122 
COMPS,ioos:station:USF.COMPS:C13:1,2017-08-01T16:35:00Z,26.0630,-83.0730,29.68,1111122 
COMPS,ioos:station:USF.COMPS:C13:1,2017-08-01T17:05:00Z,26.0630,-83.0730,29.61,1111122 
COMPS,ioos:station:USF.COMPS:C13:1,2017-08-01T17:35:00Z,26.0630,-83.0730,29.76,1111122 
COMPS,ioos:station:USF.COMPS:C13:1,2017-08-01T18:05:00Z,26.0630,-83.0730,29.73,1111122 
COMPS,ioos:station:USF.COMPS:C13:1,2017-08-01T18:35:00Z,26.0630,-83.0730,29.76,1111122 
COMPS,ioos:station:USF.COMPS:C13:1,2017-08-01T19:05:00Z,26.0630,-83.0730,29.81,1111122 
COMPS,ioos:station:USF.COMPS:C13:1,2017-08-01T19:35:00Z,26.0630,-83.0730,30.03,1111122 
COMPS,ioos:station:USF.COMPS:C13:1,2017-08-01T20:05:00Z,26.0630,-83.0730,30.09,1111122 
COMPS,ioos:station:USF.COMPS:C13:1,2017-08-01T20:35:00Z,26.0630,-83.0730,30.04,1111122 
COMPS,ioos:station:USF.COMPS:C13:1,2017-08-01T21:05:00Z,26.0630,-83.0730,27.22,1111122 
COMPS,ioos:station:USF.COMPS:C13:1,2017-08-01T21:35:00Z,26.0630,-83.0730,26.54,1111122 
COMPS,ioos:station:USF.COMPS:C13:1,2017-08-01T22:05:00Z,26.0630,-83.0730,26.61,1111122 
COMPS,ioos:station:USF.COMPS:C13:1,2017-08-01T22:35:00Z,26.0630,-83.0730,27.1,1111122 
COMPS,ioos:station:USF.COMPS:C13:1,2017-08-01T23:05:00Z,26.0630,-83.0730,27.33,1111122 
COMPS,ioos:station:USF.COMPS:C13:1,2017-08-01T23:35:00Z,26.0630,-83.0730,27.01,1111122 
COMPS,ioos:station:USF.COMPS:C13:1,2017-08-02T00:05:00Z,26.0630,-83.0730,27.23,1111122 
COMPS,ioos:station:USF.COMPS:C13:1,2017-08-02T00:35:00Z,26.0630,-83.0730,27.47,1111122 
COMPS,ioos:station:USF.COMPS:C13:1,2017-08-02T01:05:00Z,26.0630,-83.0730,27.86,1111122 
COMPS,ioos:station:USF.COMPS:C13:1,2017-08-02T01:35:00Z,26.0630,-83.0730,27.44,1111122 
COMPS,ioos:station:USF.COMPS:C13:1,2017-08-02T02:05:00Z,26.0630,-83.0730,27.13,1111122 
COMPS,ioos:station:USF.COMPS:C13:1,2017-08-02T02:35:00Z,26.0630,-83.0730,27.38,1111122 
COMPS,ioos:station:USF.COMPS:C13:1,2017-08-02T03:05:00Z,26.0630,-83.0730,27.54,1111122 
COMPS,ioos:station:USF.COMPS:C13:1,2017-08-02T03:35:00Z,26.0630,-83.0730,27.84,1111122 
COMPS,ioos:station:USF.COMPS:C13:1,2017-08-02T04:05:00Z,26.0630,-83.0730,28.34,1111122 
COMPS,ioos:station:USF.COMPS:C13:1,2017-08-02T04:35:00Z,26.0630,-83.0730,28.44,1111122 
COMPS,ioos:station:USF.COMPS:C13:1,2017-08-02T05:05:00Z,26.0630,-83.0730,27.41,1111122 
COMPS,ioos:station:USF.COMPS:C13:1,2017-08-02T05:35:00Z,26.0630,-83.0730,27.34,1111122 
COMPS,ioos:station:USF.COMPS:C13:1,2017-08-02T06:05:00Z,26.0630,-83.0730,28.39,1111122 
COMPS,ioos:station:USF.COMPS:C13:1,2017-08-02T06:35:00Z,26.0630,-83.0730,28.16,1111122 
COMPS,ioos:station:USF.COMPS:C13:1,2017-08-02T07:05:00Z,26.0630,-83.0730,28.52,1111122 
COMPS,ioos:station:USF.COMPS:C13:1,2017-08-02T07:35:00Z,26.0630,-83.0730,28.83,1111122 
COMPS,ioos:station:USF.COMPS:C13:1,2017-08-02T08:05:00Z,26.0630,-83.0730,28.92,1111122 
COMPS,ioos:station:USF.COMPS:C13:1,2017-08-02T08:35:00Z,26.0630,-83.0730,28.66,1111122 
COMPS,ioos:station:USF.COMPS:C13:1,2017-08-02T09:05:00Z,26.0630,-83.0730,28.58,1111122 
COMPS,ioos:station:USF.COMPS:C13:1,2017-08-02T09:35:00Z,26.0630,-83.0730,28.63,1111122 
COMPS,ioos:station:USF.COMPS:C13:1,2017-08-02T10:05:00Z,26.0630,-83.0730,28.58,1111122 
COMPS,ioos:station:USF.COMPS:C13:1,2017-08-02T10:35:00Z,26.0630,-83.0730,28.92,1111122 
COMPS,ioos:station:USF.COMPS:C13:1,2017-08-02T11:05:00Z,26.0630,-83.0730,29.04,1111122 
COMPS,ioos:station:USF.COMPS:C13:1,2017-08-02T11:35:00Z,26.0630,-83.0730,29.2,1111122 
COMPS,ioos:station:USF.COMPS:C13:1,2017-08-02T12:05:00Z,26.0630,-83.0730,29.36,1111122 
COMPS,ioos:station:USF.COMPS:C13:1,2017-08-02T12:35:00Z,26.0630,-83.0730,29.56,1111122 
COMPS,ioos:station:USF.COMPS:C13:1,2017-08-02T13:05:00Z,26.0630,-83.0730,29.67,1111122 
COMPS,ioos:station:USF.COMPS:C13:1,2017-08-02T13:35:00Z,26.0630,-83.0730,29.69,1111122 
COMPS,ioos:station:USF.COMPS:C13:1,2017-08-02T14:05:00Z,26.0630,-83.0730,29.62,1111122 
COMPS,ioos:station:USF.COMPS:C13:1,2017-08-02T14:35:00Z,26.0630,-83.0730,29.61,1111122 
COMPS,ioos:station:USF.COMPS:C13:1,2017-08-02T15:05:00Z,26.0630,-83.0730,29.67,1111122 
COMPS,ioos:station:USF.COMPS:C13:1,2017-08-02T15:35:00Z,26.0630,-83.0730,29.8,1111122 
COMPS,ioos:station:USF.COMPS:C13:1,2017-08-02T16:05:00Z,26.0630,-83.0730,29.63,1111122 
COMPS,ioos:station:USF.COMPS:C13:1,2017-08-02T16:35:00Z,26.0630,-83.0730,29.68,1111122 
COMPS,ioos:station:USF.COMPS:C13:1,2017-08-02T17:05:00Z,26.0630,-83.0730,29.74,1111122 
COMPS,ioos:station:USF.COMPS:C13:1,2017-08-02T17:35:00Z,26.0630,-83.0730,29.73,1111122 
COMPS,ioos:station:USF.COMPS:C13:1,2017-08-02T18:05:00Z,26.0630,-83.0730,29.83,1111122 
COMPS,ioos:station:USF.COMPS:C13:1,2017-08-02T18:35:00Z,26.0630,-83.0730,29.82,1111122 
COMPS,ioos:station:USF.COMPS:C13:1,2017-08-02T19:05:00Z,26.0630,-83.0730,29.92,1111122 
COMPS,ioos:station:USF.COMPS:C13:1,2017-08-02T19:35:00Z,26.0630,-83.0730,29.94,1111122 
COMPS,ioos:station:USF.COMPS:C13:1,2017-08-02T20:05:00Z,26.0630,-83.0730,30.01,1111122 
COMPS,ioos:station:USF.COMPS:C13:1,2017-08-02T20:35:00Z,26.0630,-83.0730,30.1,1111122 
COMPS,ioos:station:USF.COMPS:C13:1,2017-08-02T21:05:00Z,26.0630,-83.0730,30.01,1111122 
COMPS,ioos:station:USF.COMPS:C13:1,2017-08-02T21:35:00Z,26.0630,-83.0730,30.06,1111122 
COMPS,ioos:station:USF.COMPS:C13:1,2017-08-02T22:05:00Z,26.0630,-83.0730,29.94,1111122 
COMPS,ioos:station:USF.COMPS:C13:1,2017-08-02T22:35:00Z,26.0630,-83.0730,30.03,1111122 
COMPS,ioos:station:USF.COMPS:C13:1,2017-08-02T23:05:00Z,26.0630,-83.0730,27.98,1111122 
COMPS,ioos:station:USF.COMPS:C13:1,2017-08-02T23:35:00Z,26.0630,-83.0730,28.24,1111122 
COMPS,ioos:station:USF.COMPS:C13:1,2017-08-03T00:05:00Z,26.0630,-83.0730,28.21,1111122 
COMPS,ioos:station:USF.COMPS:C13:1,2017-08-03T00:35:00Z,26.0630,-83.0730,28.44,1111122 
COMPS,ioos:station:USF.COMPS:C13:1,2017-08-03T01:05:00Z,26.0630,-83.0730,28.58,1111122 
COMPS,ioos:station:USF.COMPS:C13:1,2017-08-03T01:35:00Z,26.0630,-83.0730,28.74,1111122 
COMPS,ioos:station:USF.COMPS:C13:1,2017-08-03T02:05:00Z,26.0630,-83.0730,28.69,1111122 
COMPS,ioos:station:USF.COMPS:C13:1,2017-08-03T02:35:00Z,26.0630,-83.0730,28.85,1111122 
COMPS,ioos:station:USF.COMPS:C13:1,2017-08-03T03:05:00Z,26.0630,-83.0730,28.57,1111122 
COMPS,ioos:station:USF.COMPS:C13:1,2017-08-03T03:35:00Z,26.0630,-83.0730,28.57,1111122 
COMPS,ioos:station:USF.COMPS:C13:1,2017-08-03T04:05:00Z,26.0630,-83.0730,28.54,1111122 
COMPS,ioos:station:USF.COMPS:C13:1,2017-08-03T04:35:00Z,26.0630,-83.0730,28.61,1111122 
COMPS,ioos:station:USF.COMPS:C13:1,2017-08-03T05:05:00Z,26.0630,-83.0730,28.49,1111122 
COMPS,ioos:station:USF.COMPS:C13:1,2017-08-03T05:35:00Z,26.0630,-83.0730,28.7,1111122 
COMPS,ioos:station:USF.COMPS:C13:1,2017-08-03T06:05:00Z,26.0630,-83.0730,28.57,1111122 
COMPS,ioos:station:USF.COMPS:C13:1,2017-08-03T06:35:00Z,26.0630,-83.0730,28.64,1111122 
COMPS,ioos:station:USF.COMPS:C13:1,2017-08-03T07:05:00Z,26.0630,-83.0730,28.68,1111122 
COMPS,ioos:station:USF.COMPS:C13:1,2017-08-03T07:35:00Z,26.0630,-83.0730,28.76,1111122 
COMPS,ioos:station:USF.COMPS:C13:1,2017-08-03T08:05:00Z,26.0630,-83.0730,28.73,1111122 
COMPS,ioos:station:USF.COMPS:C13:1,2017-08-03T08:35:00Z,26.0630,-83.0730,28.87,1111122 
COMPS,ioos:station:USF.COMPS:C13:1,2017-08-03T09:05:00Z,26.0630,-83.0730,28.9,1111122 
COMPS,ioos:station:USF.COMPS:C13:1,2017-08-03T09:35:00Z,26.0630,-83.0730,28.99,1111122 
COMPS,ioos:station:USF.COMPS:C13:1,2017-08-03T10:05:00Z,26.0630,-83.0730,28.92,1111122 
COMPS,ioos:station:USF.COMPS:C13:1,2017-08-03T10:35:00Z,26.0630,-83.0730,29.04,1111122 
COMPS,ioos:station:USF.COMPS:C13:1,2017-08-03T11:05:00Z,26.0630,-83.0730,29.02,1111122 
COMPS,ioos:station:USF.COMPS:C13:1,2017-08-03T11:35:00Z,26.0630,-83.0730,29.39,1111122 
COMPS,ioos:station:USF.COMPS:C13:1,2017-08-03T14:05:00Z,26.0630,-83.0730,30.24,1111122 
COMPS,ioos:station:USF.COMPS:C13:1,2017-08-03T14:35:00Z,26.0630,-83.0730,30.3,1111122 
COMPS,ioos:station:USF.COMPS:C13:1,2017-08-03T15:05:00Z,26.0630,-83.0730,30.39,1111122 
COMPS,ioos:station:USF.COMPS:C13:1,2017-08-03T15:35:00Z,26.0630,-83.0730,30.3,1111122 
COMPS,ioos:station:USF.COMPS:C13:1,2017-08-03T16:05:00Z,26.0630,-83.0730,30.5,1111122 
COMPS,ioos:station:USF.COMPS:C13:1,2017-08-03T16:35:00Z,26.0630,-83.0730,30.42,1111122 
COMPS,ioos:station:USF.COMPS:C13:1,2017-08-03T17:05:00Z,26.0630,-83.0730,30.45,1111122 
COMPS,ioos:station:USF.COMPS:C13:1,2017-08-03T17:35:00Z,26.0630,-83.0730,30.54,1111122 
COMPS,ioos:station:USF.COMPS:C13:1,2017-08-03T18:05:00Z,26.0630,-83.0730,30.54,1111122 
COMPS,ioos:station:USF.COMPS:C13:1,2017-08-03T18:35:00Z,26.0630,-83.0730,30.51,1111122 
COMPS,ioos:station:USF.COMPS:C13:1,2017-08-03T19:05:00Z,26.0630,-83.0730,30.51,1111122 
COMPS,ioos:station:USF.COMPS:C13:1,2017-08-03T19:35:00Z,26.0630,-83.0730,30.58,1111122 
COMPS,ioos:station:USF.COMPS:C13:1,2017-08-03T20:05:00Z,26.0630,-83.0730,30.56,1111122 
COMPS,ioos:station:USF.COMPS:C13:1,2017-08-03T20:35:00Z,26.0630,-83.0730,30.59,1111122 
COMPS,ioos:station:USF.COMPS:C13:1,2017-08-03T21:05:00Z,26.0630,-83.0730,30.63,1111122 
COMPS,ioos:station:USF.COMPS:C13:1,2017-08-03T21:35:00Z,26.0630,-83.0730,30.46,1111122 
COMPS,ioos:station:USF.COMPS:C13:1,2017-08-03T22:05:00Z,26.0630,-83.0730,30.34,1111122 
COMPS,ioos:station:USF.COMPS:C13:1,2017-08-03T22:35:00Z,26.0630,-83.0730,30.47,1111122 
COMPS,ioos:station:USF.COMPS:C13:1,2017-08-03T23:05:00Z,26.0630,-83.0730,30.41,1111122 
COMPS,ioos:station:USF.COMPS:C13:1,2017-08-03T23:35:00Z,26.0630,-83.0730,30.52,1111122 
COMPS,ioos:station:USF.COMPS:C13:1,2017-08-04T00:05:00Z,26.0630,-83.0730,30.29,1111122 
COMPS,ioos:station:USF.COMPS:C13:1,2017-08-04T00:35:00Z,26.0630,-83.0730,30.32,1111122 
COMPS,ioos:station:USF.COMPS:C13:1,2017-08-04T01:05:00Z,26.0630,-83.0730,30.17,1111122 
COMPS,ioos:station:USF.COMPS:C13:1,2017-08-04T01:35:00Z,26.0630,-83.0730,30.09,1111122 
COMPS,ioos:station:USF.COMPS:C13:1,2017-08-04T02:05:00Z,26.0630,-83.0730,30.21,1111122 
COMPS,ioos:station:USF.COMPS:C13:1,2017-08-04T02:35:00Z,26.0630,-83.0730,30.06,1111122 
COMPS,ioos:station:USF.COMPS:C13:1,2017-08-04T03:05:00Z,26.0630,-83.0730,29.97,1111122 
COMPS,ioos:station:USF.COMPS:C13:1,2017-08-04T03:35:00Z,26.0630,-83.0730,29.97,1111122 
COMPS,ioos:station:USF.COMPS:C13:1,2017-08-04T04:05:00Z,26.0630,-83.0730,29.8,1111122 
COMPS,ioos:station:USF.COMPS:C13:1,2017-08-04T04:35:00Z,26.0630,-83.0730,29.78,1111122 
COMPS,ioos:station:USF.COMPS:C13:1,2017-08-04T05:05:00Z,26.0630,-83.0730,29.77,1111122 
COMPS,ioos:station:USF.COMPS:C13:1,2017-08-04T05:35:00Z,26.0630,-83.0730,29.8,1111122 
COMPS,ioos:station:USF.COMPS:C13:1,2017-08-04T07:05:00Z,26.0630,-83.0730,29.78,1111122 
COMPS,ioos:station:USF.COMPS:C13:1,2017-08-04T07:35:00Z,26.0630,-83.0730,29.76,1111122 
COMPS,ioos:station:USF.COMPS:C13:1,2017-08-04T08:05:00Z,26.0630,-83.0730,29.94,1111122 
COMPS,ioos:station:USF.COMPS:C13:1,2017-08-04T08:35:00Z,26.0630,-83.0730,30.11,1111122 
COMPS,ioos:station:USF.COMPS:C13:1,2017-08-04T09:05:00Z,26.0630,-83.0730,30.11,1111122 
COMPS,ioos:station:USF.COMPS:C13:1,2017-08-04T09:35:00Z,26.0630,-83.0730,30.02,1111122 
COMPS,ioos:station:USF.COMPS:C13:1,2017-08-04T10:05:00Z,26.0630,-83.0730,29.88,1111122 
COMPS,ioos:station:USF.COMPS:C13:1,2017-08-04T10:35:00Z,26.0630,-83.0730,29.93,1111122 
COMPS,ioos:station:USF.COMPS:C13:1,2017-08-04T11:05:00Z,26.0630,-83.0730,29.9,1111122 
COMPS,ioos:station:USF.COMPS:C13:1,2017-08-04T11:35:00Z,26.0630,-83.0730,29.87,1111122 
COMPS,ioos:station:USF.COMPS:C13:1,2017-08-04T12:05:00Z,26.0630,-83.0730,30.07,1111122 
COMPS,ioos:station:USF.COMPS:C13:1,2017-08-04T12:35:00Z,26.0630,-83.0730,30.14,1111122 
COMPS,ioos:station:USF.COMPS:C13:1,2017-08-04T13:05:00Z,26.0630,-83.0730,30.12,1111122 
COMPS,ioos:station:USF.COMPS:C13:1,2017-08-04T13:35:00Z,26.0630,-83.0730,30.11,1111122 
COMPS,ioos:station:USF.COMPS:C13:1,2017-08-04T14:05:00Z,26.0630,-83.0730,30.02,1111122 
COMPS,ioos:station:USF.COMPS:C13:1,2017-08-04T14:35:00Z,26.0630,-83.0730,30.14,1111122 
COMPS,ioos:station:USF.COMPS:C13:1,2017-08-04T15:05:00Z,26.0630,-83.0730,30.27,1111122 
COMPS,ioos:station:USF.COMPS:C13:1,2017-08-04T15:35:00Z,26.0630,-83.0730,30.24,1111122 
COMPS,ioos:station:USF.COMPS:C13:1,2017-08-04T16:05:00Z,26.0630,-83.0730,30.23,1111122 
COMPS,ioos:station:USF.COMPS:C13:1,2017-08-04T16:35:00Z,26.0630,-83.0730,30.16,1111122 
COMPS,ioos:station:USF.COMPS:C13:1,2017-08-04T17:05:00Z,26.0630,-83.0730,30.27,1111122 
COMPS,ioos:station:USF.COMPS:C13:1,2017-08-04T17:35:00Z,26.0630,-83.0730,30.25,1111122 
COMPS,ioos:station:USF.COMPS:C13:1,2017-08-04T18:05:00Z,26.0630,-83.0730,30.26,1111122 
COMPS,ioos:station:USF.COMPS:C13:1,2017-08-04T18:35:00Z,26.0630,-83.0730,30.33,1111122 
COMPS,ioos:station:USF.COMPS:C13:1,2017-08-04T19:05:00Z,26.0630,-83.0730,30.44,1111122 
COMPS,ioos:station:USF.COMPS:C13:1,2017-08-04T19:35:00Z,26.0630,-83.0730,30.46,1111122 
COMPS,ioos:station:USF.COMPS:C13:1,2017-08-04T20:05:00Z,26.0630,-83.0730,30.5,1111122 
COMPS,ioos:station:USF.COMPS:C13:1,2017-08-04T20:35:00Z,26.0630,-83.0730,30.53,1111122 
COMPS,ioos:station:USF.COMPS:C13:1,2017-08-04T21:05:00Z,26.0630,-83.0730,30.52,1111122 
COMPS,ioos:station:USF.COMPS:C13:1,2017-08-04T21:35:00Z,26.0630,-83.0730,30.52,1111122 
COMPS,ioos:station:USF.COMPS:C13:1,2017-08-04T22:05:00Z,26.0630,-83.0730,30.53,1111122 
COMPS,ioos:station:USF.COMPS:C13:1,2017-08-04T22:35:00Z,26.0630,-83.0730,30.62,1111122 
COMPS,ioos:station:USF.COMPS:C13:1,2017-08-04T23:05:00Z,26.0630,-83.0730,30.52,1111122 
COMPS,ioos:station:USF.COMPS:C13:1,2017-08-04T23:35:00Z,26.0630,-83.0730,30.46,1111122 
COMPS,ioos:station:USF.COMPS:C13:1,2017-08-05T00:05:00Z,26.0630,-83.0730,30.35,1111122 
COMPS,ioos:station:USF.COMPS:C13:1,2017-08-05T00:35:00Z,26.0630,-83.0730,30.32,1111122 
COMPS,ioos:station:USF.COMPS:C13:1,2017-08-05T01:05:00Z,26.0630,-83.0730,30.24,1111122 
COMPS,ioos:station:USF.COMPS:C13:1,2017-08-05T01:35:00Z,26.0630,-83.0730,30.29,1111122 
COMPS,ioos:station:USF.COMPS:C13:1,2017-08-05T02:05:00Z,26.0630,-83.0730,30.26,1111122 
COMPS,ioos:station:USF.COMPS:C13:1,2017-08-05T02:35:00Z,26.0630,-83.0730,30.3,1111122 
COMPS,ioos:station:USF.COMPS:C13:1,2017-08-05T04:05:00Z,26.0630,-83.0730,30.04,1111122 
COMPS,ioos:station:USF.COMPS:C13:1,2017-08-05T04:35:00Z,26.0630,-83.0730,30.03,1111122 
COMPS,ioos:station:USF.COMPS:C13:1,2017-08-05T05:05:00Z,26.0630,-83.0730,29.96,1111122 
COMPS,ioos:station:USF.COMPS:C13:1,2017-08-05T05:35:00Z,26.0630,-83.0730,29.93,1111122 
COMPS,ioos:station:USF.COMPS:C13:1,2017-08-05T06:05:00Z,26.0630,-83.0730,29.93,1111122 
COMPS,ioos:station:USF.COMPS:C13:1,2017-08-05T06:35:00Z,26.0630,-83.0730,29.9,1111122 
COMPS,ioos:station:USF.COMPS:C13:1,2017-08-05T07:05:00Z,26.0630,-83.0730,29.78,1111122 
COMPS,ioos:station:USF.COMPS:C13:1,2017-08-05T07:35:00Z,26.0630,-83.0730,29.71,1111122 
COMPS,ioos:station:USF.COMPS:C13:1,2017-08-05T08:05:00Z,26.0630,-83.0730,27.38,1111122 
COMPS,ioos:station:USF.COMPS:C13:1,2017-08-05T08:35:00Z,26.0630,-83.0730,29.08,1111122 
COMPS,ioos:station:USF.COMPS:C13:1,2017-08-05T09:05:00Z,26.0630,-83.0730,29.64,1111122 
COMPS,ioos:station:USF.COMPS:C13:1,2017-08-05T09:35:00Z,26.0630,-83.0730,30.06,1111122 
COMPS,ioos:station:USF.COMPS:C13:1,2017-08-05T10:05:00Z,26.0630,-83.0730,29.79,1111122 
COMPS,ioos:station:USF.COMPS:C13:1,2017-08-05T10:35:00Z,26.0630,-83.0730,30.08,1111122 
COMPS,ioos:station:USF.COMPS:C13:1,2017-08-05T11:05:00Z,26.0630,-83.0730,30.1,1111122 
COMPS,ioos:station:USF.COMPS:C13:1,2017-08-05T11:35:00Z,26.0630,-83.0730,30.08,1111122 
COMPS,ioos:station:USF.COMPS:C13:1,2017-08-05T13:05:00Z,26.0630,-83.0730,30.55,1111122 
COMPS,ioos:station:USF.COMPS:C13:1,2017-08-05T13:35:00Z,26.0630,-83.0730,30.45,1111122 
COMPS,ioos:station:USF.COMPS:C13:1,2017-08-05T14:05:00Z,26.0630,-83.0730,30.4,1111122 
COMPS,ioos:station:USF.COMPS:C13:1,2017-08-05T14:35:00Z,26.0630,-83.0730,30.42,1111122 
COMPS,ioos:station:USF.COMPS:C13:1,2017-08-05T15:05:00Z,26.0630,-83.0730,30.39,1111122 
COMPS,ioos:station:USF.COMPS:C13:1,2017-08-05T15:35:00Z,26.0630,-83.0730,30.39,1111122 
COMPS,ioos:station:USF.COMPS:C13:1,2017-08-05T16:05:00Z,26.0630,-83.0730,30.38,1111122 
COMPS,ioos:station:USF.COMPS:C13:1,2017-08-05T16:35:00Z,26.0630,-83.0730,30.42,1111122 
COMPS,ioos:station:USF.COMPS:C13:1,2017-08-05T17:05:00Z,26.0630,-83.0730,30.47,1111122 
COMPS,ioos:station:USF.COMPS:C13:1,2017-08-05T17:35:00Z,26.0630,-83.0730,30.52,1111122 
COMPS,ioos:station:USF.COMPS:C13:1,2017-08-05T18:05:00Z,26.0630,-83.0730,30.62,1111122 
COMPS,ioos:station:USF.COMPS:C13:1,2017-08-05T18:35:00Z,26.0630,-83.0730,30.61,1111122 
COMPS,ioos:station:USF.COMPS:C13:1,2017-08-05T19:05:00Z,26.0630,-83.0730,30.26,1111122 
COMPS,ioos:station:USF.COMPS:C13:1,2017-08-05T19:35:00Z,26.0630,-83.0730,30.61,1111122 
COMPS,ioos:station:USF.COMPS:C13:1,2017-08-05T20:05:00Z,26.0630,-83.0730,30.75,1111122 
COMPS,ioos:station:USF.COMPS:C13:1,2017-08-05T20:35:00Z,26.0630,-83.0730,30.61,1111122 
COMPS,ioos:station:USF.COMPS:C13:1,2017-08-05T21:05:00Z,26.0630,-83.0730,30.57,1111122 
COMPS,ioos:station:USF.COMPS:C13:1,2017-08-05T21:35:00Z,26.0630,-83.0730,30.24,1111122 
COMPS,ioos:station:USF.COMPS:C13:1,2017-08-05T22:05:00Z,26.0630,-83.0730,30.27,1111122 
COMPS,ioos:station:USF.COMPS:C13:1,2017-08-05T22:35:00Z,26.0630,-83.0730,30.47,1111122 
COMPS,ioos:station:USF.COMPS:C13:1,2017-08-05T23:05:00Z,26.0630,-83.0730,30.43,1111122 
COMPS,ioos:station:USF.COMPS:C13:1,2017-08-05T23:35:00Z,26.0630,-83.0730,30.91,1111122 
COMPS,ioos:station:USF.COMPS:C13:1,2017-08-06T00:05:00Z,26.0630,-83.0730,29.97,1111122 
COMPS,ioos:station:USF.COMPS:C13:1,2017-08-06T00:35:00Z,26.0630,-83.0730,29.8,1111122 
COMPS,ioos:station:USF.COMPS:C13:1,2017-08-06T01:05:00Z,26.0630,-83.0730,29.82,1111122 
COMPS,ioos:station:USF.COMPS:C13:1,2017-08-06T01:35:00Z,26.0630,-83.0730,29.87,1111122 
COMPS,ioos:station:USF.COMPS:C13:1,2017-08-06T02:05:00Z,26.0630,-83.0730,29.88,1111122 
COMPS,ioos:station:USF.COMPS:C13:1,2017-08-06T02:35:00Z,26.0630,-83.0730,29.91,1111122 
COMPS,ioos:station:USF.COMPS:C13:1,2017-08-06T04:05:00Z,26.0630,-83.0730,30.21,1111122 
COMPS,ioos:station:USF.COMPS:C13:1,2017-08-06T04:35:00Z,26.0630,-83.0730,30.17,1111122 
COMPS,ioos:station:USF.COMPS:C13:1,2017-08-06T08:05:00Z,26.0630,-83.0730,30.14,1111122 
COMPS,ioos:station:USF.COMPS:C13:1,2017-08-06T08:35:00Z,26.0630,-83.0730,30.06,1111122 
COMPS,ioos:station:USF.COMPS:C13:1,2017-08-06T09:05:00Z,26.0630,-83.0730,30.06,1111122 
COMPS,ioos:station:USF.COMPS:C13:1,2017-08-06T09:35:00Z,26.0630,-83.0730,30.05,1111122 
COMPS,ioos:station:USF.COMPS:C13:1,2017-08-06T10:05:00Z,26.0630,-83.0730,29.9,1111122 
COMPS,ioos:station:USF.COMPS:C13:1,2017-08-06T10:35:00Z,26.0630,-83.0730,29.95,1111122 
COMPS,ioos:station:USF.COMPS:C13:1,2017-08-06T11:05:00Z,26.0630,-83.0730,29.92,1111122 
COMPS,ioos:station:USF.COMPS:C13:1,2017-08-06T11:35:00Z,26.0630,-83.0730,29.99,1111122 
COMPS,ioos:station:USF.COMPS:C13:1,2017-08-06T12:05:00Z,26.0630,-83.0730,30.3,1111122 
COMPS,ioos:station:USF.COMPS:C13:1,2017-08-06T12:35:00Z,26.0630,-83.0730,30.32,1111122 
COMPS,ioos:station:USF.COMPS:C13:1,2017-08-06T13:05:00Z,26.0630,-83.0730,30.41,1111122 
COMPS,ioos:station:USF.COMPS:C13:1,2017-08-06T13:35:00Z,26.0630,-83.0730,30.32,1111122 
COMPS,ioos:station:USF.COMPS:C13:1,2017-08-06T15:05:00Z,26.0630,-83.0730,30.16,1111122 
COMPS,ioos:station:USF.COMPS:C13:1,2017-08-06T15:35:00Z,26.0630,-83.0730,30.14,1111122 
COMPS,ioos:station:USF.COMPS:C13:1,2017-08-06T17:05:00Z,26.0630,-83.0730,30.19,1111122 
COMPS,ioos:station:USF.COMPS:C13:1,2017-08-06T17:35:00Z,26.0630,-83.0730,30.15,1111122 
COMPS,ioos:station:USF.COMPS:C13:1,2017-08-06T18:05:00Z,26.0630,-83.0730,30.18,1111122 
COMPS,ioos:station:USF.COMPS:C13:1,2017-08-06T18:35:00Z,26.0630,-83.0730,30.35,1111122 
COMPS,ioos:station:USF.COMPS:C13:1,2017-08-06T19:05:00Z,26.0630,-83.0730,30.22,1111122 
COMPS,ioos:station:USF.COMPS:C13:1,2017-08-06T19:35:00Z,26.0630,-83.0730,30.38,1111122 
COMPS,ioos:station:USF.COMPS:C13:1,2017-08-06T20:05:00Z,26.0630,-83.0730,30.31,1111122 
COMPS,ioos:station:USF.COMPS:C13:1,2017-08-06T20:35:00Z,26.0630,-83.0730,30.45,1111122 
COMPS,ioos:station:USF.COMPS:C13:1,2017-08-06T21:05:00Z,26.0630,-83.0730,30.39,1111122 
COMPS,ioos:station:USF.COMPS:C13:1,2017-08-06T21:35:00Z,26.0630,-83.0730,30.49,1111122 
COMPS,ioos:station:USF.COMPS:C13:1,2017-08-06T22:05:00Z,26.0630,-83.0730,30.44,1111122 
COMPS,ioos:station:USF.COMPS:C13:1,2017-08-06T22:35:00Z,26.0630,-83.0730,30.44,1111122 
COMPS,ioos:station:USF.COMPS:C13:1,2017-08-06T23:05:00Z,26.0630,-83.0730,30.57,1111122 
COMPS,ioos:station:USF.COMPS:C13:1,2017-08-06T23:35:00Z,26.0630,-83.0730,30.6,1111122 
COMPS,ioos:station:USF.COMPS:C13:1,2017-08-07T02:05:00Z,26.0630,-83.0730,29.0,1111122 
COMPS,ioos:station:USF.COMPS:C13:1,2017-08-07T02:35:00Z,26.0630,-83.0730,28.73,1111122 
COMPS,ioos:station:USF.COMPS:C13:1,2017-08-07T03:05:00Z,26.0630,-83.0730,28.81,1111122 
COMPS,ioos:station:USF.COMPS:C13:1,2017-08-07T03:35:00Z,26.0630,-83.0730,29.29,1111122 
COMPS,ioos:station:USF.COMPS:C13:1,2017-08-07T04:05:00Z,26.0630,-83.0730,29.36,1111122 
COMPS,ioos:station:USF.COMPS:C13:1,2017-08-07T04:35:00Z,26.0630,-83.0730,29.43,1111122 